Tracking 29892 objects as of 21-Nov-2024
HD Live streaming from Space Station
objects crossing your sky now

STARLINK-4543

Track STARLINK-4543 now!
10-day predictions
STARLINK-4543 is classified as:


NORAD ID: 53429
Int'l Code: 2022-097AT
Perigee: 545.7 km
Apogee: 548.0 km
Inclination: 53.2 °
Period: 95.4 minutes
Semi major axis: 6917 km
RCS: Unknown
Launch date: August 10, 2022
Source: United States (US)
Launch site: AIR FORCE EASTERN TEST RANGE (AFETR)
Your satellite tracking list
Your tracking list is empty




NASA's NSSDC Master Catalog

Two Line Element Set (TLE):
1 53429U 22097AT  24325.28813090  .00002965  00000-0  20422-3 0  9995
2 53429  53.2172  73.9042 0001715 107.1415 252.9765 15.08853414127165
Source of the keplerian elements: AFSPC